Tracking 28790 objects as of 19-Apr-2024
HD Live streaming from Space Station
objects crossing your sky now

CHUANG XIN 1 (CZ-1)

Track CHUANG XIN 1 (CZ-1) now!
10-day predictions
CHUANG XIN 1 (CZ-1) is classified as:


NORAD ID: 28058
Int'l Code: 2003-049B
Perigee: 730.7 km
Apogee: 750.2 km
Inclination: 98.6 °
Period: 99.5 minutes
Semi major axis: 7111 km
RCS: 0.5789 m2 (medium)
Launch date: October 21, 2003
Source: People's Republic of China (PRC)
Launch site: Taiyaun Space Center, China (TSC)

Prototype of advanced telecommunications satellite for LEO.
Your satellite tracking list
Your tracking list is empty




NASA's NSSDC Master Catalog

Two Line Element Set (TLE):
1 28058U 03049B   24109.60381116  .00000772  00000-0  22149-3 0  9998
2 28058  98.6013 348.4519 0013749  58.3216 301.9315 14.47659470 81991
Source of the keplerian elements: AFSPC